START_TIME,STEP,MOV.,M6,t_acc.,M7,t_acc.,M19,t_acc.,H36,t_acc.
1981-08-24 12:00:28.150 ,5,0,0.,12.0,0.,12.0,0.,12.0,0.,12.0
1981-08-24 12:00:40.150 ,5,0,0.,12.0,0.,12.0,0.,12.0,0.,12.0
1981-08-24 12:00:52.150 ,4,1,0.,12.0,0.,12.0,0.,12.0,0.,12.0
1981-08-24 12:01:04.150 ,4,1,0.,12.0,0.,12.0,0.,12.0,0.,12.0
1981-08-24 12:01:16.150 ,4,0,0.,12.0,0.,12.0,0.,12.0,0.,12.0
1981-08-24 12:01:28.150 ,4,0,0.,12.0,0.,12.0,0.,12.0,0.,12.0
1981-08-24 12:01:40.150 ,3,1,0.,12.0,0.,12.0,0.,12.0,0.,12.0
1981-08-24 12:01:52.150 ,3,1,0.,12.0,0.,12.0,0.,12.0,0.,12.0
1981-08-24 12:02:04.150 ,3,0,0.,12.0,0.,12.0,0.,12.0,0.,12.0
1981-08-24 12:02:16.150 ,3,0,0.,12.0,0.,12.0,0.,12.0,0.,12.0
1981-08-24 12:02:28.150 ,2,1,0.,12.0,0.,12.0,0.,12.0,0.,12.0
1981-08-24 12:02:40.150 ,2,1,0.,12.0,0.,12.0,0.,12.0,0.,12.0
1981-08-24 12:02:52.150 ,2,0,0.,12.0,0.,12.0,0.,12.0,0.,12.0
1981-08-24 12:03:04.150 ,2,0,0.,12.0,0.,12.0,0.,12.0,0.,12.0
1981-08-24 12:03:16.150 ,1,1,0.,12.0,0.,12.0,0.,12.0,0.,12.0
1981-08-24 12:03:28.150 ,1,1,0.,12.0,0.,12.0,0.,12.0,0.,12.0
1981-08-24 12:03:40.150 ,1,0,0.,12.0,0.,12.0,0.,12.0,0.,12.0
1981-08-24 12:03:52.150 ,1,0,0.,12.0,0.,12.0,0.,12.0,0.,12.0
1981-08-24 12:04:04.150 ,0,1,0.,12.0,0.,12.0,0.,12.0,0.,12.0
1981-08-24 12:04:16.150 ,0,1,0.,12.0,0.,12.0,0.,12.0,0.,12.0
1981-08-24 12:04:28.150 ,0,0,0.,12.0,0.,12.0,0.,12.0,0.,12.0
1981-08-24 12:04:40.150 ,0,0,0.,12.0,0.,12.0,0.,12.0,0.,12.0
1981-08-24 12:04:52.150 ,0,1,0.,12.0,0.,12.0,0.,12.0,0.,12.0
1981-08-24 12:05:04.150 ,0,1,0.,12.0,0.,12.0,0.,12.0,0.,12.0
1981-08-24 12:05:16.150 ,0,0,0.,12.0,0.,12.0,0.,12.0,0.,12.0
1981-08-24 12:05:28.150 ,0,0,0.,12.0,0.,12.0,0.,12.0,0.,12.0
1981-08-24 12:05:40.150 ,1,1,0.,12.0,0.,12.0,0.,12.0,0.,12.0
1981-08-24 12:05:52.150 ,1,1,0.,12.0,0.,12.0,0.,12.0,0.,12.0
1981-08-24 12:06:04.150 ,1,0,0.,12.0,0.,12.0,0.,12.0,0.,12.0
1981-08-24 12:06:16.150 ,1,0,0.,12.0,0.,12.0,0.,12.0,0.,12.0
1981-08-24 12:06:28.150 ,2,1,0.,12.0,0.,12.0,0.,12.0,0.,12.0
1981-08-24 12:06:40.150 ,2,1,0.,12.0,0.,12.0,0.,12.0,0.,12.0
1981-08-24 12:06:52.150 ,2,0,0.,12.0,0.,12.0,0.,12.0,0.,12.0
1981-08-24 12:07:04.150 ,2,0,0.,12.0,0.,12.0,0.,12.0,0.,12.0
1981-08-24 12:07:16.150 ,3,1,0.,12.0,0.,12.0,0.,12.0,0.,12.0
1981-08-24 12:07:28.150 ,3,1,0.,12.0,0.,12.0,0.,12.0,0.,12.0
1981-08-24 12:07:40.150 ,3,0,0.,12.0,0.,12.0,0.,12.0,0.,12.0
1981-08-24 12:07:52.150 ,3,0,0.,12.0,0.,12.0,0.,12.0,0.,12.0
1981-08-24 12:08:04.150 ,4,1,0.,12.0,0.,12.0,0.,12.0,0.,12.0
1981-08-24 12:08:16.150 ,4,1,0.,12.0,0.,12.0,0.,12.0,0.,12.0
1981-08-24 12:08:28.150 ,4,0,0.,12.0,0.,12.0,0.,12.0,0.,12.0
1981-08-24 12:08:40.150 ,4,0,0.,12.0,0.,12.0,0.,12.0,0.,12.0
1981-08-24 12:08:52.150 ,5,1,0.,12.0,0.,12.0,0.,12.0,0.,12.0
1981-08-24 12:09:04.150 ,5,1,0.,12.0,0.,12.0,0.,12.0,0.,12.0
1981-08-24 12:09:16.150 ,0,0,0.,12.0,0.,12.0,0.,12.0,0.,12.0
1981-08-24 12:09:28.150 ,0,0,0.,12.0,0.,12.0,0.,12.0,0.,12.0
1981-08-24 12:09:40.150 ,6,1,0.,12.0,0.,12.0,0.,12.0,0.,12.0
1981-08-24 12:09:52.150 ,6,1,0.,12.0,0.,12.0,0.,12.0,0.,12.0
1981-08-24 12:10:04.150 ,6,0,0.,12.0,0.,12.0,0.,12.0,0.,12.0
1981-08-24 12:10:16.150 ,6,0,0.,12.0,0.,12.0,0.,12.0,0.,12.0
1981-08-24 12:10:28.150 ,7,1,0.,12.0,0.,12.0,0.,12.0,0.,12.0
1981-08-24 12:10:40.150 ,7,1,0.,12.0,0.,12.0,0.,12.0,0.,12.0
1981-08-24 12:10:52.150 ,7,0,0.,12.0,0.,12.0,0.,12.0,0.,12.0
1981-08-24 12:11:04.150 ,7,0,0.,12.0,0.,12.0,0.,12.0,0.,12.0
1981-08-24 12:11:16.150 ,7,1,0.,12.0,0.,12.0,0.,12.0,0.,12.0
1981-08-24 12:11:28.150 ,7,1,0.,12.0,0.,12.0,0.,12.0,0.,12.0
1981-08-24 12:11:40.150 ,6,1,0.,12.0,0.,12.0,0.,12.0,0.,12.0
1981-08-24 12:11:52.150 ,6,1,0.,12.0,0.,12.0,0.,12.0,0.,12.0
1981-08-24 12:12:04.150 ,5,1,0.,12.0,0.,12.0,0.,12.0,0.,12.0
1981-08-24 12:12:16.150 ,5,1,0.,12.0,0.,12.0,0.,12.0,0.,12.0
1981-08-24 12:12:28.150 ,4,1,0.,12.0,0.,12.0,0.,12.0,0.,12.0
1981-08-24 12:12:40.150 ,4,1,0.,12.0,0.,12.0,0.,12.0,0.,12.0
1981-08-24 12:12:52.150 ,0,0,0.,12.0,0.,12.0,0.,12.0,0.,12.0
1981-08-24 12:13:04.150 ,0,0,0.,12.0,0.,12.0,0.,12.0,0.,12.0
1981-08-24 12:13:16.150 ,2,1,0.,12.0,0.,12.0,0.,12.0,0.,12.0
1981-08-24 12:13:28.150 ,2,1,0.,12.0,0.,12.0,0.,12.0,0.,12.0
1981-08-24 12:13:40.150 ,1,1,0.,12.0,0.,12.0,0.,12.0,0.,12.0
1981-08-24 12:13:52.150 ,1,1,0.,12.0,0.,12.0,0.,12.0,0.,12.0
1981-08-24 12:14:04.150 ,0,1,0.,12.0,0.,12.0,0.,12.0,0.,12.0
1981-08-24 12:14:16.150 ,0,1,0.,12.0,0.,12.0,0.,12.0,0.,12.0
1981-08-24 12:14:28.150 ,0,1,0.,12.0,0.,12.0,0.,12.0,0.,12.0
1981-08-24 12:14:40.150 ,0,1,0.,12.0,0.,12.0,0.,12.0,0.,12.0
1981-08-24 12:14:52.150 ,1,1,0.,12.0,0.,12.0,0.,12.0,0.,12.0
1981-08-24 12:15:04.150 ,1,1,0.,12.0,0.,12.0,0.,12.0,0.,12.0
1981-08-24 12:15:16.150 ,2,1,,0,,0,,0,,0
1981-08-24 12:15:28.150 ,2,1,0.,12.0,0.,12.0,0.,12.0,0.,12.0
1981-08-24 12:15:40.150 ,3,1,0.,12.0,0.,12.0,0.,12.0,0.,12.0
1981-08-24 12:15:52.150 ,3,1,0.,12.0,0.,12.0,0.,12.0,0.,12.0
1981-08-24 12:16:04.150 ,4,1,0.,12.0,0.,12.0,0.,12.0,0.,12.0
1981-08-24 12:16:16.150 ,4,1,0.,12.0,0.,12.0,0.,12.0,0.,12.0
1981-08-24 12:16:28.150 ,5,1,0.,12.0,0.,12.0,0.,12.0,0.,12.0
1981-08-24 12:16:40.150 ,5,1,0.,12.0,0.,12.0,0.,12.0,0.,12.0
1981-08-24 12:16:52.150 ,6,1,0.,12.0,0.,12.0,0.,12.0,0.,12.0
1981-08-24 12:17:04.150 ,6,1,0.,12.0,0.,12.0,0.,12.0,0.,12.0
1981-08-24 12:17:16.150 ,7,1,0.,12.0,0.,12.0,0.,12.0,0.,12.0
1981-08-24 12:17:28.150 ,7,1,0.,12.0,0.,12.0,0.,12.0,0.,12.0
1981-08-24 12:17:40.150 ,7,1,0.,12.0,0.,12.0,0.,12.0,0.,12.0
1981-08-24 12:17:52.150 ,7,1,0.,12.0,0.,12.0,0.,12.0,0.,12.0
1981-08-24 12:18:04.150 ,7,0,0.,12.0,0.,12.0,0.,12.0,0.,12.0
1981-08-24 12:18:16.150 ,7,0,0.,12.0,0.,12.0,0.,12.0,0.,12.0
1981-08-24 12:18:28.150 ,6,1,0.,12.0,0.,12.0,0.,12.0,0.,12.0
1981-08-24 12:18:40.150 ,6,1,0.,12.0,0.,12.0,0.,12.0,0.,12.0
1981-08-24 12:18:52.150 ,6,0,0.,12.0,0.,12.0,0.,12.0,0.,12.0
1981-08-24 12:19:04.150 ,6,0,0.,12.0,0.,12.0,0.,12.0,0.,12.0
1981-08-24 12:19:16.150 ,5,1,0.,12.0,0.,12.0,0.,12.0,0.,12.0
1981-08-24 12:19:28.150 ,5,1,0.,12.0,0.,12.0,0.,12.0,0.,12.0
1981-08-24 12:19:40.150 ,5,0,0.,12.0,0.,12.0,0.,12.0,0.,12.0
1981-08-24 12:19:52.150 ,5,0,0.,12.0,0.,12.0,0.,12.0,0.,12.0
1981-08-24 12:20:04.150 ,4,1,0.,12.0,0.,12.0,0.,12.0,0.,12.0
1981-08-24 12:20:16.150 ,4,1,0.,12.0,0.,12.0,0.,12.0,0.,12.0
1981-08-24 12:20:28.150 ,4,0,0.,12.0,0.,12.0,0.,12.0,0.,12.0
1981-08-24 12:20:40.150 ,4,0,0.,12.0,0.,12.0,0.,12.0,0.,12.0
1981-08-24 12:20:52.150 ,3,1,0.,12.0,0.,12.0,0.,12.0,0.,12.0
1981-08-24 12:21:04.150 ,3,1,0.,12.0,0.,12.0,0.,12.0,0.,12.0
1981-08-24 12:21:16.150 ,3,0,0.,12.0,0.,12.0,0.,12.0,0.,12.0
1981-08-24 12:21:28.150 ,3,0,0.,12.0,0.,12.0,0.,12.0,0.,12.0
1981-08-24 12:21:40.150 ,2,1,0.,12.0,0.,12.0,0.,12.0,0.,12.0
1981-08-24 12:21:52.150 ,2,1,0.,12.0,0.,12.0,0.,12.0,0.,12.0
1981-08-24 12:22:04.150 ,2,0,0.,12.0,0.,12.0,0.,12.0,0.,12.0
1981-08-24 12:22:16.150 ,2,0,0.,12.0,0.,12.0,0.,12.0,0.,12.0
1981-08-24 12:22:28.150 ,1,1,0.,12.0,0.,12.0,0.,12.0,0.,12.0
1981-08-24 12:22:40.150 ,1,1,0.,12.0,0.,12.0,0.,12.0,0.,12.0
1981-08-24 12:22:52.150 ,1,0,0.,12.0,0.,12.0,0.,12.0,0.,12.0
1981-08-24 12:23:04.150 ,1,0,0.,12.0,0.,12.0,0.,12.0,0.,12.0
1981-08-24 12:23:16.150 ,0,1,0.,12.0,0.,12.0,0.,12.0,0.,12.0
1981-08-24 12:23:28.150 ,0,1,0.,12.0,0.,12.0,0.,12.0,0.,12.0
1981-08-24 12:23:40.150 ,0,0,0.,12.0,0.,12.0,0.,12.0,0.,12.0
1981-08-24 12:23:52.150 ,0,0,0.,12.0,0.,12.0,0.,12.0,0.,12.0
1981-08-24 12:24:04.150 ,0,1,0.,12.0,0.,12.0,0.,12.0,0.,12.0
1981-08-24 12:24:16.150 ,0,1,0.,12.0,0.,12.0,0.,12.0,0.,12.0
1981-08-24 12:24:28.150 ,0,0,0.,12.0,0.,12.0,0.,12.0,0.,12.0
1981-08-24 12:24:40.150 ,0,0,0.,12.0,0.,12.0,0.,12.0,0.,12.0
1981-08-24 12:24:52.150 ,1,1,0.,12.0,0.,12.0,0.,12.0,0.,12.0
1981-08-24 12:25:04.150 ,1,1,0.,12.0,0.,12.0,0.,12.0,0.,12.0
1981-08-24 12:25:16.150 ,1,0,0.,12.0,0.,12.0,0.,12.0,0.,12.0
1981-08-24 12:25:28.150 ,1,0,0.,12.0,0.,12.0,0.,12.0,0.,12.0
1981-08-24 12:25:40.150 ,2,1,0.,12.0,0.,12.0,0.,12.0,0.,12.0
1981-08-24 12:25:52.150 ,2,1,0.,12.0,0.,12.0,0.,12.0,0.,12.0
1981-08-24 12:26:04.150 ,2,0,0.,12.0,0.,12.0,0.,12.0,0.,12.0
1981-08-24 12:26:16.150 ,2,0,0.,12.0,0.,12.0,0.,12.0,0.,12.0
1981-08-24 12:26:28.150 ,3,1,0.,12.0,0.,12.0,0.,12.0,0.,12.0
1981-08-24 12:26:40.150 ,3,1,0.,12.0,0.,12.0,0.,12.0,0.,12.0
1981-08-24 12:26:52.150 ,3,0,0.,12.0,0.,12.0,0.,12.0,0.,12.0
1981-08-24 12:27:04.150 ,3,0,0.,12.0,0.,12.0,0.,12.0,0.,12.0
1981-08-24 12:27:16.150 ,4,1,0.,12.0,0.,12.0,0.,12.0,0.,12.0
1981-08-24 12:27:28.150 ,4,1,0.,12.0,0.,12.0,0.,12.0,0.,12.0
1981-08-24 12:27:40.150 ,4,0,0.,12.0,0.,12.0,0.,12.0,0.,12.0
1981-08-24 12:27:52.150 ,4,0,0.,12.0,0.,12.0,0.,12.0,0.,12.0
1981-08-24 12:28:04.150 ,5,1,0.,12.0,0.,12.0,0.,12.0,0.,12.0
1981-08-24 12:28:16.150 ,5,1,0.,12.0,0.,12.0,0.,12.0,0.,12.0
1981-08-24 12:28:28.150 ,5,0,0.,12.0,0.,12.0,0.,12.0,0.,12.0
1981-08-24 12:28:40.150 ,5,0,0.,12.0,0.,12.0,0.,12.0,0.,12.0
1981-08-24 12:28:52.150 ,6,1,0.,12.0,0.,12.0,0.,12.0,0.,12.0
1981-08-24 12:29:04.150 ,6,1,0.,12.0,0.,12.0,0.,12.0,0.,12.0
1981-08-24 12:29:16.150 ,6,0,0.,12.0,0.,12.0,0.,12.0,0.,12.0
1981-08-24 12:29:28.150 ,6,0,0.,12.0,0.,12.0,0.,12.0,0.,12.0
1981-08-24 12:29:40.150 ,7,1,0.,12.0,0.,12.0,0.,12.0,0.,12.0
1981-08-24 12:29:52.150 ,7,1,0.,12.0,0.,12.0,0.,12.0,0.,12.0
1981-08-24 12:30:04.150 ,7,0,0.,12.0,0.,12.0,0.,12.0,0.,12.0
1981-08-24 12:30:16.150 ,7,0,0.,12.0,0.,12.0,0.,12.0,0.,12.0
1981-08-24 12:30:28.150 ,7,1,0.,12.0,0.,12.0,0.,12.0,0.,12.0
1981-08-24 12:30:40.150 ,7,1,0.,12.0,0.,12.0,0.,12.0,0.,12.0
1981-08-24 12:30:52.150 ,6,1,0.,12.0,0.,12.0,0.,12.0,0.,12.0
1981-08-24 12:31:04.150 ,6,1,0.,12.0,0.,12.0,0.,12.0,0.,12.0
1981-08-24 12:31:16.150 ,5,1,0.,12.0,0.,12.0,0.,12.0,0.,12.0
1981-08-24 12:31:28.150 ,5,1,0.,12.0,0.,12.0,0.,12.0,0.,12.0
1981-08-24 12:31:40.150 ,4,1,0.,12.0,0.,12.0,0.,12.0,0.,12.0
1981-08-24 12:31:52.150 ,4,1,0.,12.0,0.,12.0,0.,12.0,0.,12.0
1981-08-24 12:32:04.150 ,3,1,0.,12.0,0.,12.0,0.,12.0,0.,12.0
1981-08-24 12:32:16.150 ,3,1,0.,12.0,0.,12.0,0.,12.0,0.,12.0
1981-08-24 12:32:28.150 ,2,1,0.,12.0,0.,12.0,0.,12.0,0.,12.0
1981-08-24 12:32:40.150 ,2,1,0.,12.0,0.,12.0,0.,12.0,0.,12.0
1981-08-24 12:32:52.150 ,1,1,0.,12.0,0.,12.0,0.,12.0,0.,12.0
1981-08-24 12:33:04.150 ,1,1,0.,12.0,0.,12.0,0.,12.0,0.,12.0
1981-08-24 12:33:16.150 ,0,1,0.,12.0,0.,12.0,0.,12.0,0.,12.0
1981-08-24 12:33:28.150 ,0,1,0.,12.0,0.,12.0,0.,12.0,0.,12.0
1981-08-24 12:33:40.150 ,0,1,0.,12.0,0.,12.0,0.,12.0,0.,12.0
1981-08-24 12:33:52.150 ,0,1,0.,12.0,0.,12.0,0.,12.0,0.,12.0
1981-08-24 12:34:04.150 ,1,1,0.,12.0,0.,12.0,0.,12.0,0.,12.0
1981-08-24 12:34:16.150 ,1,1,0.,12.0,0.,12.0,0.,12.0,0.,12.0
1981-08-24 12:34:28.150 ,2,1,0.,12.0,0.,12.0,0.,12.0,0.,12.0
1981-08-24 12:34:40.150 ,2,1,0.,12.0,0.,12.0,0.,12.0,0.,12.0
1981-08-24 12:34:52.150 ,3,1,0.,12.0,0.,12.0,0.,12.0,0.,12.0
1981-08-24 12:35:04.150 ,3,1,0.,12.0,0.,12.0,0.,12.0,0.,12.0
1981-08-24 12:35:16.150 ,4,1,0.,12.0,0.,12.0,0.,12.0,0.,12.0
1981-08-24 12:35:28.150 ,4,1,0.,12.0,0.,12.0,0.,12.0,0.,12.0
1981-08-24 12:35:40.150 ,5,1,0.,12.0,0.,12.0,0.,12.0,0.,12.0
1981-08-24 12:35:52.150 ,5,1,0.,12.0,0.,12.0,0.,12.0,0.,12.0
1981-08-24 12:36:04.150 ,6,1,0.,12.0,0.,12.0,0.,12.0,0.,12.0
1981-08-24 12:36:16.150 ,6,1,0.,12.0,0.,12.0,0.,12.0,0.,12.0
1981-08-24 12:36:28.150 ,7,1,0.,12.0,0.,12.0,0.,12.0,0.,12.0
1981-08-24 12:36:40.150 ,7,1,0.,12.0,0.,12.0,0.,12.0,0.,12.0
1981-08-24 12:36:52.150 ,7,1,0.,12.0,0.,12.0,0.,12.0,0.,12.0
1981-08-24 12:37:04.150 ,7,1,0.,12.0,0.,12.0,0.,12.0,0.,12.0
1981-08-24 12:37:16.150 ,7,0,0.,12.0,0.,12.0,0.,12.0,0.,12.0
1981-08-24 12:37:28.150 ,7,0,0.,12.0,0.,12.0,0.,12.0,0.,12.0
1981-08-24 12:37:40.150 ,6,1,0.,12.0,0.,12.0,0.,12.0,0.,12.0
1981-08-24 12:37:52.150 ,6,1,0.,12.0,0.,12.0,0.,12.0,0.,12.0
1981-08-24 12:38:04.150 ,6,0,0.,12.0,0.,12.0,0.,12.0,0.,12.0
1981-08-24 12:38:16.150 ,6,0,0.,12.0,0.,12.0,0.,12.0,0.,12.0
1981-08-24 12:38:28.150 ,5,1,0.,12.0,0.,12.0,0.,12.0,0.,12.0
1981-08-24 12:38:40.150 ,5,1,0.,12.0,0.,12.0,0.,12.0,0.,12.0
1981-08-24 12:38:52.150 ,5,0,0.,12.0,0.,12.0,0.,12.0,0.,12.0
1981-08-24 12:39:04.150 ,5,0,0.,12.0,0.,12.0,0.,12.0,0.,12.0
1981-08-24 12:39:16.150 ,4,1,0.,12.0,0.,12.0,0.,12.0,0.,12.0
1981-08-24 12:39:28.150 ,4,1,0.,12.0,0.,12.0,0.,12.0,0.,12.0
1981-08-24 12:39:40.150 ,4,0,0.,12.0,0.,12.0,0.,12.0,0.,12.0
1981-08-24 12:39:52.150 ,4,0,0.,12.0,0.,12.0,0.,12.0,0.,12.0
1981-08-24 12:40:04.150 ,3,1,0.,12.0,0.,12.0,0.,12.0,0.,12.0
1981-08-24 12:40:16.150 ,3,1,0.,12.0,0.,12.0,0.,12.0,0.,12.0
1981-08-24 12:40:28.150 ,3,0,0.,12.0,0.,12.0,0.,12.0,0.,12.0
1981-08-24 12:40:40.150 ,3,0,0.,12.0,0.,12.0,0.,12.0,0.,12.0
1981-08-24 12:40:52.150 ,2,1,0.,12.0,0.,12.0,0.,12.0,0.,12.0
1981-08-24 12:41:04.150 ,2,1,0.,12.0,0.,12.0,0.,12.0,0.,12.0
1981-08-24 12:41:16.150 ,2,0,0.,12.0,0.,12.0,0.,12.0,0.,12.0
1981-08-24 12:41:28.150 ,2,0,0.,12.0,0.,12.0,0.,12.0,0.,12.0
1981-08-24 12:41:40.150 ,1,1,0.,12.0,0.,12.0,0.,12.0,0.,12.0
1981-08-24 12:41:52.150 ,1,1,0.,12.0,0.,12.0,0.,12.0,0.,12.0
1981-08-24 12:42:04.150 ,1,0,0.,12.0,0.,12.0,0.,12.0,0.,12.0
1981-08-24 12:42:16.150 ,1,0,0.,12.0,0.,12.0,0.,12.0,0.,12.0
1981-08-24 12:42:28.150 ,0,1,0.,12.0,0.,12.0,0.,12.0,0.,12.0
1981-08-24 12:42:40.150 ,0,1,0.,12.0,0.,12.0,0.,12.0,0.,12.0
1981-08-24 12:42:52.150 ,0,0,0.,12.0,0.,12.0,0.,12.0,0.,12.0
1981-08-24 12:43:04.150 ,0,0,0.,12.0,0.,12.0,0.,12.0,0.,12.0
1981-08-24 12:43:16.150 ,0,1,0.,12.0,0.,12.0,0.,12.0,0.,12.0
1981-08-24 12:43:28.150 ,0,1,0.,12.0,0.,12.0,0.,12.0,0.,12.0
1981-08-24 12:43:40.150 ,0,0,0.,12.0,0.,12.0,0.,12.0,0.,12.0
1981-08-24 12:43:52.150 ,0,0,0.,12.0,0.,12.0,0.,12.0,0.,12.0
1981-08-24 12:44:04.150 ,1,1,0.,12.0,0.,12.0,0.,12.0,0.,12.0
1981-08-24 12:44:16.150 ,1,1,0.,12.0,0.,12.0,0.,12.0,0.,12.0
1981-08-24 12:44:28.150 ,1,0,0.,12.0,0.,12.0,0.,12.0,0.,12.0
1981-08-24 12:44:40.150 ,1,0,0.,12.0,0.,12.0,0.,12.0,0.,12.0
1981-08-24 12:44:52.150 ,2,1,0.,12.0,0.,12.0,0.,12.0,0.,12.0
1981-08-24 12:45:04.150 ,2,1,0.,12.0,0.,12.0,0.,12.0,0.,12.0
1981-08-24 12:45:16.150 ,2,0,0.,12.0,0.,12.0,0.,12.0,0.,12.0
1981-08-24 12:45:28.150 ,2,0,0.,12.0,0.,12.0,0.,12.0,0.,12.0
1981-08-24 12:45:40.150 ,3,1,0.,12.0,0.,12.0,0.,12.0,0.,12.0
1981-08-24 12:45:52.150 ,3,1,0.,12.0,0.,12.0,0.,12.0,0.,12.0
1981-08-24 12:46:04.150 ,3,0,0.,12.0,0.,12.0,0.,12.0,0.,12.0
1981-08-24 12:46:16.150 ,3,0,0.,12.0,0.,12.0,0.,12.0,0.,12.0
1981-08-24 12:46:28.150 ,4,1,0.,12.0,0.,12.0,0.,12.0,0.,12.0
1981-08-24 12:46:40.150 ,4,1,0.,12.0,0.,12.0,0.,12.0,0.,12.0
1981-08-24 12:46:52.150 ,4,0,0.,12.0,0.,12.0,0.,12.0,0.,12.0
1981-08-24 12:47:04.150 ,4,0,0.,12.0,0.,12.0,0.,12.0,0.,12.0
1981-08-24 12:47:16.150 ,5,1,0.,12.0,0.,12.0,0.,12.0,0.,12.0
1981-08-24 12:47:28.150 ,5,1,0.,12.0,0.,12.0,0.,12.0,0.,12.0
1981-08-24 12:47:40.150 ,5,0,0.,12.0,0.,12.0,0.,12.0,0.,12.0
1981-08-24 12:47:52.150 ,5,0,0.,12.0,0.,12.0,0.,12.0,0.,12.0
1981-08-24 12:48:04.150 ,6,1,0.,12.0,0.,12.0,0.,12.0,0.,12.0
1981-08-24 12:48:16.150 ,6,1,0.,12.0,0.,12.0,0.,12.0,0.,12.0
1981-08-24 12:48:28.150 ,6,0,0.,12.0,0.,12.0,0.,12.0,0.,12.0
1981-08-24 12:48:40.150 ,6,0,0.,12.0,0.,12.0,0.,12.0,0.,12.0
1981-08-24 12:48:52.150 ,7,1,0.,12.0,0.,12.0,0.,12.0,0.,12.0
1981-08-24 12:49:04.150 ,7,1,0.,12.0,0.,12.0,0.,12.0,0.,12.0
1981-08-24 12:49:16.150 ,7,0,0.,12.0,0.,12.0,0.,12.0,0.,12.0
1981-08-24 12:49:28.150 ,7,0,0.,12.0,0.,12.0,0.,12.0,0.,12.0
1981-08-24 12:49:40.150 ,7,1,0.,12.0,0.,12.0,0.,12.0,0.,12.0
1981-08-24 12:49:52.150 ,7,1,0.,12.0,0.,12.0,0.,12.0,0.,12.0
1981-08-24 12:50:04.150 ,6,1,0.,12.0,0.,12.0,0.,12.0,0.,12.0
1981-08-24 12:50:16.150 ,6,1,0.,12.0,0.,12.0,0.,12.0,0.,12.0
1981-08-24 12:50:28.150 ,5,1,0.,12.0,0.,12.0,0.,12.0,0.,12.0
1981-08-24 12:50:40.150 ,5,1,0.,12.0,0.,12.0,0.,12.0,0.,12.0
1981-08-24 12:50:52.150 ,4,1,0.,12.0,0.,12.0,0.,12.0,0.,12.0
1981-08-24 12:51:04.150 ,4,1,0.,12.0,0.,12.0,0.,12.0,0.,12.0
1981-08-24 12:51:16.150 ,3,1,0.,12.0,0.,12.0,0.,12.0,0.,12.0
1981-08-24 12:51:28.150 ,3,1,0.,12.0,0.,12.0,0.,12.0,0.,12.0
1981-08-24 12:51:40.150 ,2,1,0.,12.0,0.,12.0,0.,12.0,0.,12.0
1981-08-24 12:51:52.150 ,2,1,0.,12.0,0.,12.0,0.,12.0,0.,12.0
1981-08-24 12:52:04.150 ,1,1,0.,12.0,0.,12.0,0.,12.0,0.,12.0
1981-08-24 12:52:16.150 ,1,1,0.,12.0,0.,12.0,0.,12.0,1.,12.0
1981-08-24 12:52:28.150 ,0,1,0.,12.0,0.,12.0,0.,12.0,0.,12.0
1981-08-24 12:52:40.150 ,0,1,0.,12.0,0.,12.0,0.,12.0,0.,12.0
1981-08-24 12:52:52.150 ,0,1,0.,12.0,0.,12.0,0.,12.0,0.,12.0
1981-08-24 12:53:04.150 ,0,1,0.,12.0,0.,12.0,0.,12.0,0.,12.0
1981-08-24 12:53:16.150 ,1,1,0.,12.0,0.,12.0,0.,12.0,0.,12.0
1981-08-24 12:53:28.150 ,1,1,0.,12.0,0.,12.0,0.,12.0,0.,12.0
1981-08-24 12:53:40.150 ,2,1,0.,12.0,0.,12.0,0.,12.0,0.,12.0
1981-08-24 12:53:52.150 ,2,1,0.,12.0,0.,12.0,0.,12.0,0.,12.0
1981-08-24 12:54:04.150 ,3,1,0.,12.0,0.,12.0,0.,12.0,0.,12.0
1981-08-24 12:54:16.150 ,3,1,0.,12.0,0.,12.0,0.,12.0,0.,12.0
1981-08-24 12:54:28.150 ,4,1,0.,12.0,0.,12.0,0.,12.0,0.,12.0
1981-08-24 12:54:40.150 ,4,1,0.,12.0,0.,12.0,0.,12.0,0.,12.0
1981-08-24 12:54:52.150 ,5,1,0.,12.0,0.,12.0,0.,12.0,0.,12.0
1981-08-24 12:55:04.150 ,5,1,0.,12.0,0.,12.0,0.,12.0,0.,12.0
1981-08-24 12:55:16.150 ,6,1,0.,12.0,0.,12.0,0.,12.0,0.,12.0
1981-08-24 12:55:28.150 ,6,1,0.,12.0,0.,12.0,0.,12.0,0.,12.0
1981-08-24 12:55:40.150 ,7,1,0.,12.0,0.,12.0,0.,12.0,0.,12.0
1981-08-24 12:55:52.150 ,7,1,0.,12.0,0.,12.0,0.,12.0,0.,12.0
1981-08-24 12:56:04.150 ,7,1,0.,12.0,0.,12.0,0.,12.0,0.,12.0
1981-08-24 12:56:16.150 ,7,1,0.,12.0,0.,12.0,0.,12.0,0.,12.0
1981-08-24 12:56:28.150 ,7,0,0.,12.0,0.,12.0,0.,12.0,0.,12.0
1981-08-24 12:56:40.150 ,7,0,0.,12.0,0.,12.0,0.,12.0,0.,12.0
1981-08-24 12:56:52.150 ,6,1,0.,12.0,0.,12.0,0.,12.0,0.,12.0
1981-08-24 12:57:04.150 ,6,1,0.,12.0,0.,12.0,0.,12.0,0.,12.0
1981-08-24 12:57:16.150 ,6,0,0.,12.0,0.,12.0,0.,12.0,0.,12.0
1981-08-24 12:57:28.150 ,6,0,0.,12.0,0.,12.0,0.,12.0,0.,12.0
1981-08-24 12:57:40.150 ,5,1,0.,12.0,0.,12.0,0.,12.0,0.,12.0
1981-08-24 12:57:52.150 ,5,1,0.,12.0,0.,12.0,0.,12.0,0.,12.0
1981-08-24 12:58:04.150 ,5,0,0.,12.0,0.,12.0,0.,12.0,0.,12.0
1981-08-24 12:58:16.150 ,5,0,0.,12.0,0.,12.0,0.,12.0,0.,12.0
1981-08-24 12:58:28.150 ,4,1,0.,12.0,0.,12.0,0.,12.0,0.,12.0
1981-08-24 12:58:40.150 ,4,1,0.,12.0,0.,12.0,0.,12.0,0.,12.0
1981-08-24 12:58:52.150 ,4,0,0.,12.0,0.,12.0,0.,12.0,0.,12.0
1981-08-24 12:59:04.150 ,4,0,0.,12.0,0.,12.0,0.,12.0,0.,12.0
1981-08-24 12:59:16.150 ,3,1,0.,12.0,0.,12.0,0.,12.0,0.,12.0
1981-08-24 12:59:28.150 ,3,1,0.,12.0,0.,12.0,0.,12.0,0.,12.0
1981-08-24 12:59:40.150 ,3,0,0.,12.0,0.,12.0,0.,12.0,0.,12.0
1981-08-24 12:59:52.150 ,3,0,0.,12.0,0.,12.0,0.,12.0,0.,12.0
1981-08-24 13:00:04.150 ,2,1,0.,12.0,0.,12.0,0.,12.0,0.,12.0
1981-08-24 13:00:16.150 ,2,1,0.,12.0,0.,12.0,0.,12.0,0.,12.0
1981-08-24 13:00:28.150 ,2,0,0.,12.0,0.,12.0,0.,12.0,0.,12.0
1981-08-24 13:00:40.150 ,2,0,0.,12.0,0.,12.0,0.,12.0,0.,12.0
1981-08-24 13:00:52.150 ,1,1,0.,12.0,0.,12.0,0.,12.0,0.,12.0
1981-08-24 13:01:04.150 ,1,1,0.,12.0,0.,12.0,0.,12.0,0.,12.0
1981-08-24 13:01:16.150 ,1,0,0.,12.0,0.,12.0,0.,12.0,0.,12.0
1981-08-24 13:01:28.150 ,1,0,0.,12.0,0.,12.0,0.,12.0,0.,12.0
1981-08-24 13:01:40.150 ,0,1,0.,12.0,0.,12.0,0.,12.0,0.,12.0
1981-08-24 13:01:52.150 ,0,1,0.,12.0,0.,12.0,0.,12.0,0.,12.0
1981-08-24 13:02:04.150 ,0,0,0.,12.0,0.,12.0,0.,12.0,0.,12.0
1981-08-24 13:02:16.150 ,0,0,0.,12.0,0.,12.0,0.,12.0,0.,12.0
1981-08-24 13:02:28.150 ,0,1,0.,12.0,0.,12.0,0.,12.0,0.,12.0
1981-08-24 13:02:40.150 ,0,1,0.,12.0,0.,12.0,0.,12.0,0.,12.0
1981-08-24 13:02:52.150 ,0,0,0.,12.0,0.,12.0,0.,12.0,0.,12.0
1981-08-24 13:03:04.150 ,0,0,0.,12.0,0.,12.0,0.,12.0,0.,12.0
1981-08-24 13:03:16.150 ,1,1,0.,12.0,0.,12.0,0.,12.0,0.,12.0
1981-08-24 13:03:28.150 ,1,1,0.,12.0,0.,12.0,0.,12.0,0.,12.0
1981-08-24 13:03:40.150 ,1,0,0.,12.0,0.,12.0,0.,12.0,0.,12.0
1981-08-24 13:03:52.150 ,1,0,0.,12.0,0.,12.0,0.,12.0,0.,12.0
1981-08-24 13:04:04.150 ,2,1,0.,12.0,0.,12.0,0.,12.0,0.,12.0
1981-08-24 13:04:16.150 ,2,1,0.,12.0,0.,12.0,0.,12.0,0.,12.0
1981-08-24 13:04:28.150 ,2,0,0.,12.0,0.,12.0,0.,12.0,0.,12.0
1981-08-24 13:04:40.150 ,2,0,0.,12.0,0.,12.0,0.,12.0,0.,12.0
1981-08-24 13:04:52.150 ,3,1,0.,12.0,0.,12.0,0.,12.0,0.,12.0
1981-08-24 13:05:04.150 ,3,1,0.,12.0,0.,12.0,0.,12.0,0.,12.0
1981-08-24 13:05:16.150 ,3,0,0.,12.0,0.,12.0,0.,12.0,0.,12.0
1981-08-24 13:05:28.150 ,3,0,0.,12.0,0.,12.0,0.,12.0,0.,12.0
1981-08-24 13:05:40.150 ,4,1,0.,12.0,0.,12.0,0.,12.0,0.,12.0
1981-08-24 13:05:52.150 ,4,1,0.,12.0,0.,12.0,0.,12.0,0.,12.0
1981-08-24 13:06:04.150 ,4,0,0.,12.0,0.,12.0,0.,12.0,0.,12.0
1981-08-24 13:06:16.150 ,4,0,0.,12.0,0.,12.0,0.,12.0,0.,12.0
1981-08-24 13:06:28.150 ,5,1,0.,12.0,0.,12.0,0.,12.0,0.,12.0
1981-08-24 13:06:40.150 ,5,1,0.,12.0,0.,12.0,0.,12.0,0.,12.0
1981-08-24 13:06:52.150 ,5,0,0.,12.0,0.,12.0,0.,12.0,0.,12.0
1981-08-24 13:07:04.150 ,5,0,0.,12.0,0.,12.0,0.,12.0,0.,12.0
1981-08-24 13:07:16.150 ,6,1,0.,12.0,0.,12.0,0.,12.0,0.,12.0
1981-08-24 13:07:28.150 ,6,1,0.,12.0,0.,12.0,0.,12.0,0.,12.0
1981-08-24 13:07:40.150 ,6,0,0.,12.0,0.,12.0,0.,12.0,0.,12.0
1981-08-24 13:07:52.150 ,6,0,0.,12.0,0.,12.0,0.,12.0,0.,12.0
1981-08-24 13:08:04.150 ,7,1,0.,12.0,0.,12.0,0.,12.0,0.,12.0
1981-08-24 13:08:16.150 ,7,1,0.,12.0,0.,12.0,0.,12.0,0.,12.0
1981-08-24 13:08:28.150 ,7,0,0.,12.0,0.,12.0,0.,12.0,0.,12.0
1981-08-24 13:08:40.150 ,7,0,0.,12.0,0.,12.0,0.,12.0,0.,12.0
1981-08-24 13:08:52.150 ,7,1,0.,12.0,0.,12.0,0.,12.0,0.,12.0
1981-08-24 13:09:04.150 ,7,1,0.,12.0,0.,12.0,0.,12.0,0.,12.0
1981-08-24 13:09:16.150 ,6,1,0.,12.0,0.,12.0,0.,12.0,0.,12.0
1981-08-24 13:09:28.150 ,6,1,0.,12.0,0.,12.0,0.,12.0,0.,12.0
1981-08-24 13:09:40.150 ,5,1,0.,12.0,0.,12.0,0.,12.0,0.,12.0
1981-08-24 13:09:52.150 ,5,1,0.,12.0,0.,12.0,0.,12.0,0.,12.0
1981-08-24 13:10:04.150 ,4,1,0.,12.0,0.,12.0,0.,12.0,0.,12.0
1981-08-24 13:10:16.150 ,4,1,0.,12.0,0.,12.0,0.,12.0,0.,12.0
1981-08-24 13:10:28.150 ,3,1,0.,12.0,0.,12.0,0.,12.0,0.,12.0
1981-08-24 13:10:40.150 ,3,1,0.,12.0,0.,12.0,0.,12.0,0.,12.0
1981-08-24 13:10:52.150 ,2,1,0.,12.0,0.,12.0,0.,12.0,0.,12.0
1981-08-24 13:11:04.150 ,2,1,0.,12.0,0.,12.0,0.,12.0,0.,12.0
1981-08-24 13:11:16.150 ,1,1,0.,12.0,0.,12.0,0.,12.0,0.,12.0
1981-08-24 13:11:28.150 ,1,1,0.,12.0,0.,12.0,0.,12.0,0.,12.0
1981-08-24 13:11:40.150 ,0,1,0.,12.0,0.,12.0,0.,12.0,0.,12.0
1981-08-24 13:11:52.150 ,0,1,0.,12.0,0.,12.0,0.,12.0,0.,12.0
1981-08-24 13:12:04.150 ,0,1,0.,12.0,0.,12.0,0.,12.0,0.,12.0
1981-08-24 13:12:16.150 ,0,1,0.,12.0,0.,12.0,0.,12.0,0.,12.0
1981-08-24 13:12:28.150 ,1,1,0.,12.0,0.,12.0,0.,12.0,0.,12.0
1981-08-24 13:12:40.150 ,1,1,0.,12.0,0.,12.0,0.,12.0,0.,12.0
1981-08-24 13:12:52.150 ,2,1,0.,12.0,0.,12.0,0.,12.0,0.,12.0
1981-08-24 13:13:04.150 ,2,1,0.,12.0,0.,12.0,0.,12.0,0.,12.0
1981-08-24 13:13:16.150 ,3,1,0.,12.0,0.,12.0,0.,12.0,0.,12.0
1981-08-24 13:13:28.150 ,3,1,0.,12.0,0.,12.0,0.,12.0,0.,12.0
1981-08-24 13:13:40.150 ,4,1,0.,12.0,0.,12.0,0.,12.0,0.,12.0
1981-08-24 13:13:52.150 ,4,1,0.,12.0,0.,12.0,0.,12.0,0.,12.0
1981-08-24 13:14:04.150 ,5,1,0.,12.0,0.,12.0,0.,12.0,0.,12.0
1981-08-24 13:14:16.150 ,5,1,0.,12.0,0.,12.0,0.,12.0,0.,12.0
1981-08-24 13:14:28.150 ,6,1,0.,12.0,0.,12.0,0.,12.0,0.,12.0
1981-08-24 13:14:40.150 ,6,1,0.,12.0,0.,12.0,0.,12.0,0.,12.0
1981-08-24 13:14:52.150 ,7,1,0.,12.0,0.,12.0,0.,12.0,0.,12.0
1981-08-24 13:15:04.150 ,7,1,0.,12.0,0.,12.0,0.,12.0,0.,12.0
1981-08-24 13:15:16.150 ,7,1,0.,12.0,0.,12.0,0.,12.0,0.,12.0
1981-08-24 13:15:28.150 ,7,1,0.,12.0,0.,12.0,0.,12.0,0.,12.0
1981-08-24 13:15:40.150 ,7,0,0.,12.0,0.,12.0,0.,12.0,0.,12.0
1981-08-24 13:15:52.150 ,7,0,0.,12.0,0.,12.0,0.,12.0,0.,12.0
1981-08-24 13:16:04.150 ,6,1,0.,12.0,0.,12.0,0.,12.0,0.,12.0
1981-08-24 13:16:16.150 ,6,1,0.,12.0,0.,12.0,0.,12.0,0.,12.0
1981-08-24 13:16:28.150 ,6,0,0.,12.0,0.,12.0,0.,12.0,0.,12.0
1981-08-24 13:16:40.150 ,6,0,0.,12.0,0.,12.0,0.,12.0,0.,12.0
1981-08-24 13:16:52.150 ,5,1,0.,12.0,0.,12.0,0.,12.0,0.,12.0
1981-08-24 13:17:04.150 ,5,1,0.,12.0,0.,12.0,0.,12.0,0.,12.0
1981-08-24 13:17:16.150 ,5,0,0.,12.0,0.,12.0,0.,12.0,0.,12.0
1981-08-24 13:17:28.150 ,5,0,0.,12.0,0.,12.0,0.,12.0,0.,12.0